SCP
0 0 0 0 0 0 0 0 0 0 0 0 0 0 0 0 0 0 0 0 0 0 0 0 0 0 0 0 0 0 0 0 0 0 0 0 0 0 0 0 0 0 0
0 0 0 0 0 0 0 0 0 0 0 0 0 0 0 0 0 0 0 0 0 0 0 0 0 0 0 0 0 0 0 0 0 0 0 0 0 0 0 0 0 0 0
0 0 0 0 0 0 0 0 0 0 0 0 0 0 0 0 0 0 0 0 0 0 0 0 0 0 0 0 0 0 0 0 0 0 0 0 0 0 0 0 0 0 0
0 0 0 0 0 0 0 0 0 0 0 0 0 0 0 0 0 0 0 0 0 0 0 0 0 0 0 0 0 0 0 0 0 0 0 0 0 0 0 0 0 0 0
0 0 0 0 0 0 0 0 0 0 0 0 0 0 0 0 0 0 0 0 0 0 0 0 0 0 0 0 0 0 0 0 0 0 0 0 0 0 0 0 0 0 0
0 0 0 0 0 0 0 0 0 0 0 0 0 0 0 0 0 0 0 0 0 0 0 0 0 0 0 0 0 0 0 0 0 0 0 0 0 0 0 0 0 0 0
0 0 0 0 0 0 0 0 0 0 0 0 0 0 0 0 0 0 0 0 0 0 0 0 0 0 0 0 0 0 0 0 0 0 0 0 0 0 0 0 0 0 0
0 0 0 0 0 0 0 0 0 0 0 0 0 0 0 0 0 0 0 0 0 0 0 0 0 0 0 0 0 0 0 0 0 0 0 0 0 0 0 0 0 0 0
0 0 0 0 0 0 0 0 0 0 0 0 0 0 0 0 0 0 0 0 0 0 0 0 0 0 0 0 0 0 0 0 0 0 0 0 0 0 0 0 0 0 0
0 0 0 0 0 0 0 0 0 0 0 0 0 0 0 0 0 0 0 0 0 0 0 0 0 0 0 0 0 0 0 0 0 0 0 0 0 0 0 0 0 0 0
0 0 0 0 0 0 0 0 0 0 0 0 0 0 0 0 0 0 0 0 0 0 0 0 0 0 0 0 0 0 0 0 0 0 0 0 0 0 0 0 0 0 0
0 0 0 0 0 0 0 0 0 0 0 0 0 0 0 0 0 0 0 0 0 0 0 0 0 0 0 0 0 0 0 0 0 0 0 0 0 0 0 0 0 0 0
0 0 0 0 0 0 0 0 0 0 0 0 0 0 0 0 0 0 0 0 0 0 0 0 0 0 0 0 0 0 0 0 0 0 0 0 0 0 0 0 0 0 0
0 0 0 0 0 0 0 0 0 0 0 0 0 0 0 0 0 0 0 0 0 0 0 0 0 0 0 0 0 0 0 0 0 0 0 0 0 0 0 0 0 0 0
0 0 0 0 0 0 0 0 0 0 0 0 0 0 0 0 0 0 0 0 0 0 0 0 0 0 0 0 0 0 0 0 0 0 0 0 0 0 0 0 0 0 0
0 0 0 0 0 0 0 0 0 0 0 0 0 0 0 0 0 0 0 0 0 0 0 0 0 0 0 0 0 0 0 0 0 0 0 0 0 0 0 0 0 0 0
0 0 0 0 0 0 0 0 0 0 0 0 0 0 0 0 0 0 0 0 0 0 0 0 0 0 0 0 0 0 0 0 0 0 0 0 0 0 0 0 0 0 0
0 0 0 0 0 0 0 0 0 0 0 0 0 0 0 0 0 0 0 0 0 0 0 0 0 0 0 0 0 0 0 0 0 0 0 0 0 0 0 0 0 0 0
0 0 0 0 0 0 0 0 0 0 0 0 0 0 0 0 0 0 0 0 0 0 0 0 0 0 0 0 0 0 0 0 0 0 0 0 0 0 0 0 0 0 0
0 0 0 0 0 0 0 0 0 0 0 0 0 0 0 0 0 0 0 0 0 0 0 0 0 0 0 0 0 0 0 0 0 0 0 0 0 0 0 0 0 0 0
0 0 0 0 0 0 0 0 0 0 0 0 0 0 0 0 0 0 0 0 0 0 0 0 0 0 0 0 0 0 0 0 0 0 0 0 0 0 0 0 0 0 0
0 0 0 0 0 0 0 0 0 0 0 0 0 0 0 0 0 0 0 0 0 0 0 0 0 0 0 0 0 0 0 0 0 0 0 0 0 0 0 0 0 0 0
0 0 0 0 0 0 0 0 0 0 0 0 0 0 0 0 0 0 0 0 0 0 0 0 0 0 0 0 0 0 0 0 0 0 0 0 0 0 0 0 0 0 0
0 0 0 0 0 0 0 0 0 0 0 0 0 0 0 0 0 0 0 0 0 0 0 0 0 0 0 0 0 0 0 0 0 0 0 0 0 0 0 0 0 0 0
0 0 0 0 0 0 0 0 0 0 0 0 0 0 0 0 0 0 0 0 0 0 0 0 0 0 0 0 0 0 0 0 0 0 0 0 0 0 0 0 0 0 0
0 0 0 0 0 0 0 0 0 0 0 0 0 0 0 0 0 0 0 0 0 0 0 0 0 0 0 0 0 0 0 0 0 0 0 0 0 0 0 0 0 0 0
Wind_Speed
5 6 7 7 8 9 9 8 9 9 8 8 8 8 8 9 9 9 9 9 9 9 9 9 9 10 10 10 10 10 10 10 10 10 10 11 11 10 10 9 7 8 10
6 7 8 7 8 9 9 8 8 8 8 8 8 8 8 9 9 9 9 9 9 9 9 9 9 9 9 10 9 9 10 10 10 10 9 9 10 10 9 9 9 8 9
7 7 8 7 8 9 9 8 8 8 8 8 8 8 8 9 9 9 9 9 8 8 9 9 9 9 9 9 9 9 9 10 9 8 5 6 8 9 8 8 9 9 9
7 7 7 8 8 8 8 8 8 8 8 8 8 8 7 8 8 8 8 8 8 8 8 8 8 8 9 8 8 9 9 8 8 4 4 5 6 8 8 8 8 8 8
7 7 8 8 8 8 9 8 8 8 7 7 7 7 7 8 8 7 7 7 7 7 7 7 7 7 7 8 8 8 8 7 6 3 5 5 5 7 7 8 8 7 7
7 7 8 7 8 8 8 8 7 7 7 7 8 7 7 8 8 7 6 6 6 6 6 6 6 7 6 7 7 7 7 6 2 4 4 4 5 6 6 6 6 6 6
7 6 8 7 8 8 8 8 7 7 7 7 7 7 7 7 7 7 6 6 6 6 6 6 6 6 6 6 6 7 6 3 2 3 3 3 5 5 5 5 5 5 5
6 6 7 7 7 8 8 8 7 7 7 7 7 7 6 6 7 7 6 6 5 5 5 6 6 5 6 6 6 6 5 2 2 2 2 2 4 4 4 4 4 4 4
6 6 6 6 7 7 7 7 6 6 6 6 6 7 6 6 6 6 6 5 5 5 5 5 5 5 5 5 5 5 4 2 0 1 1 2 3 2 2 3 3 3 3
5 5 5 5 5 6 6 7 6 6 6 6 6 6 5 5 5 5 5 5 4 4 4 5 5 5 5 4 4 4 3 1 0 1 0 2 3 1 1 2 2 2 3
5 5 5 5 5 5 5 6 6 5 5 5 5 6 4 3 4 3 4 4 4 4 4 4 4 4 4 4 4 3 1 1 1 0 1 3 2 2 1 1 1 2 2
7 6 5 6 5 5 4 4 4 3 4 4 3 4 3 2 2 2 4 4 4 4 4 4 4 4 2 2 3 2 1 0 0 0 1 2 2 3 2 1 1 1 2
8 7 6 6 5 5 4 3 2 2 3 3 4 4 3 3 2 2 1 2 2 2 2 3 3 2 1 1 1 1 0 1 0 0 1 2 2 3 2 2 2 2 2
8 7 6 6 5 5 4 3 3 3 2 2 3 3 3 2 2 1 1 1 1 1 1 1 1 2 1 1 1 1 1 1 0 1 1 2 3 3 3 2 2 2 3
8 8 7 7 6 5 4 3 3 3 3 3 3 3 3 2 2 2 1 1 1 1 1 0 1 2 2 1 1 1 1 1 1 1 0 2 2 2 3 3 3 3 4
9 8 8 7 7 6 5 4 3 3 3 3 3 3 3 2 2 2 2 1 1 1 0 1 1 1 1 1 1 1 1 1 1 1 1 1 2 2 3 4 4 4 5
9 8 8 8 7 7 6 5 4 3 3 3 3 3 3 2 2 2 2 1 1 1 1 1 1 1 1 1 1 1 1 1 1 1 1 1 1 1 3 3 4 5 5
8 8 8 7 7 8 6 5 4 4 4 3 3 3 4 3 3 2 2 2 1 1 1 1 1 1 1 1 1 1 1 1 1 1 1 1 1 1 1 3 4 5 6
8 8 8 8 8 8 7 5 5 4 4 3 3 3 3 4 3 2 2 1 2 2 2 1 1 1 1 1 1 1 1 1 1 1 1 1 1 2 2 1 2 4 5
8 8 8 8 8 7 6 5 4 4 3 3 3 3 4 3 3 3 2 2 2 1 2 2 1 1 1 0 0 1 1 2 2 2 2 1 1 2 2 2 2 2 3
8 8 8 8 8 7 6 6 5 5 4 3 3 4 4 4 4 3 2 2 2 2 2 2 1 1 0 0 1 1 2 2 2 2 2 2 1 2 2 2 2 2 2
9 9 9 9 9 9 7 5 4 4 3 3 3 4 4 4 4 3 4 3 3 2 3 2 2 1 0 0 1 1 2 2 3 2 2 2 2 1 1 2 2 2 2
9 10 8 9 9 9 8 6 4 4 3 3 4 4 4 4 4 4 4 4 3 3 3 3 3 2 1 1 1 2 2 2 1 2 2 2 2 2 2 2 2 3 3
8 8 9 9 9 9 9 8 9 6 6 5 4 4 4 5 5 5 5 5 4 3 3 3 3 2 3 2 1 1 2 2 3 2 2 2 2 3 3 2 3 3 3
7 7 7 8 8 8 9 9 9 7 5 4 4 5 5 5 5 5 5 4 4 4 4 4 3 3 3 3 2 1 2 2 3 4 3 2 2 2 3 3 3 3 3
5 6 7 8 8 8 9 9 9 8 7 7 6 5 5 4 4 5 5 5 5 4 4 4 4 4 3 3 3 2 2 2 2 3 4 4 3 2 3 3 3 3 3
Wind_Direction
159 160 155 154 140 134 132 126 122 118 119 121 124 127 126 124 120 115 112 107 101 99 98 92 89 89 86 83 82 79 77 75 74 69 71 74 75 73 67 60 60 72 68
152 159 152 152 142 136 134 129 122 118 117 121 126 128 126 126 124 119 114 110 104 101 98 94 92 92 88 85 82 80 79 76 74 70 71 79 76 73 68 58 47 63 64
149 153 153 147 139 136 134 133 127 123 121 123 127 128 127 127 125 121 115 111 108 104 99 96 94 92 90 86 84 82 79 77 75 69 74 81 80 72 70 65 61 65 65
148 150 149 138 138 137 136 134 130 129 127 127 130 129 128 127 123 120 117 114 111 107 104 100 96 93 92 89 87 84 80 77 73 66 76 72 76 74 70 67 64 64 63
147 147 134 134 137 136 136 136 133 131 132 131 131 132 129 125 121 119 117 114 112 110 109 105 100 98 96 94 92 88 84 78 71 65 70 71 73 75 69 67 64 62 61
148 147 135 135 135 133 133 133 133 137 136 132 129 127 128 127 121 112 109 115 114 111 110 108 106 102 99 101 97 93 88 83 103 77 72 67 70 72 69 67 64 60 61
148 145 141 136 133 131 129 125 127 137 137 130 127 127 127 125 121 115 110 110 116 116 114 111 108 106 105 103 100 96 89 76 73 79 74 70 67 65 67 67 63 60 58
146 143 139 137 134 132 130 127 124 119 123 124 120 119 119 121 122 120 117 116 120 123 122 119 113 110 109 104 99 95 90 77 96 88 79 74 64 56 61 62 59 59 57
147 145 143 146 145 137 129 125 125 120 116 114 112 110 110 116 120 123 120 114 116 123 123 120 118 114 109 103 97 89 87 35 74 89 70 62 59 43 55 58 53 51 51
150 149 149 150 153 152 145 128 123 118 112 109 108 105 106 116 121 120 127 118 120 117 118 117 116 113 107 105 101 93 92 199 189 115 52 61 39 13 32 41 48 46 40
166 163 159 156 157 155 148 138 134 118 112 117 113 104 118 142 140 134 102 101 120 118 120 119 112 108 110 115 103 97 167 215 157 5 358 42 2 338 349 20 28 30 31
183 178 172 165 162 160 149 148 150 145 139 143 140 136 139 131 113 108 88 82 101 108 125 119 113 126 163 151 136 174 203 223 197 140 49 26 333 319 321 352 9 7 14
189 183 180 171 170 166 156 155 152 147 146 148 141 139 142 133 126 121 118 118 124 146 160 142 152 166 169 151 180 188 252 272 253 247 66 25 324 320 322 328 343 346 351
194 190 185 177 176 173 164 160 160 155 156 152 149 148 153 144 140 132 131 126 136 149 159 170 172 164 168 178 198 203 225 253 279 324 41 26 329 318 318 317 337 339 333
199 195 189 183 179 173 168 164 166 166 165 157 158 155 160 159 156 147 139 126 126 121 152 194 192 173 177 184 201 220 232 243 243 258 40 46 346 331 328 322 326 324 322
202 196 190 188 185 178 175 171 172 172 165 166 165 159 169 168 163 162 158 150 152 146 182 223 208 196 213 206 211 230 247 265 260 249 275 42 24 340 331 329 324 322 316
204 198 193 189 188 186 183 178 172 173 175 173 166 167 169 172 171 169 166 166 163 169 189 207 182 202 211 207 213 244 266 270 273 278 290 308 322 6 337 328 325 326 318
208 200 193 188 190 190 188 183 177 176 179 178 170 170 175 176 177 175 177 174 171 181 185 184 184 198 201 227 252 277 284 283 289 287 284 301 306 309 334 338 325 323 322
209 202 195 191 191 191 187 182 177 174 179 180 179 176 175 180 188 188 180 175 179 181 183 184 186 208 214 222 267 294 293 273 271 267 253 282 305 305 301 339 337 332 325
210 204 199 194 191 185 180 175 172 174 176 181 184 183 180 178 183 182 171 171 178 184 182 184 172 179 212 220 255 284 276 262 254 261 266 272 284 288 287 290 291 319 329
207 203 198 196 190 182 179 181 182 183 180 182 184 184 186 182 180 183 175 176 184 185 191 186 176 167 167 288 245 249 240 235 244 262 262 264 267 283 280 284 288 297 301
205 203 198 194 191 187 187 185 189 181 185 183 179 184 186 184 181 185 185 186 186 185 185 181 177 200 195 250 263 256 240 216 204 246 250 264 273 267 274 288 293 296 306
204 201 197 193 190 189 185 177 167 164 161 173 183 185 187 187 187 187 190 191 188 190 190 189 194 202 200 217 275 270 256 254 281 202 232 256 272 286 287 290 290 291 298
204 196 194 191 188 187 185 184 182 188 191 193 188 185 183 189 195 193 192 193 190 194 194 192 196 204 198 201 220 265 289 305 276 261 217 241 273 279 282 284 281 286 289
203 193 190 187 186 186 189 191 193 198 195 184 182 183 185 188 197 197 195 195 193 195 197 193 191 200 205 208 209 221 245 265 270 268 271 269 266 270 279 278 277 280 284
196 189 186 184 186 187 189 193 199 198 191 183 187 188 188 187 193 196 197 198 199 198 195 198 194 199 204 208 212 215 228 240 246 257 268 276 281 286 284 275 270 275 279